This is the latest recevied weather packets stored in our database for station/object N0QWM. If no packets are shown the sender has not sent any weather packets the latest 1 day(s).
| Time | Temp. | Humidity | Pressure | Rain* | Wind** | Luminosity | Snow |
|---|---|---|---|---|---|---|---|
| 1778023468 | 24.44° C | 62% | 1017.1 hPa | 0 mm | 0 m/s | 32 W/m² | - |
| 1778023164 | 25° C | 61% | 1017.1 hPa | 0 mm | 0 m/s | 42 W/m² | - |
| 1778022862 | 25° C | 61% | 1017.2 hPa | 0 mm | 0 m/s | 48 W/m² | - |
| 1778022560 | 25° C | 61% | 1017.4 hPa | 0 mm | 0 m/s | 55 W/m² | - |
| 1778022262 | 24.44° C | 61% | 1017.2 hPa | 0 mm | 0 m/s | 52 W/m² | - |
| 1778021954 | 24.44° C | 60% | 1017.3 hPa | 0 mm | 1.34 m/s, 280° | 55 W/m² | - |
| 1778021651 | 24.44° C | 60% | 1017.4 hPa | 0 mm | 0.45 m/s, 247° | 49 W/m² | - |
| 1778021346 | 24.44° C | 60% | 1017.5 hPa | 0 mm | 0.89 m/s, 251° | 55 W/m² | - |
| 1778021044 | 24.44° C | 60% | 1017.3 hPa | 0 mm | 0 m/s | 52 W/m² | - |
| 1778020741 | 24.44° C | 60% | 1017.4 hPa | 0 mm | 0.89 m/s, 308° | 66 W/m² | - |
| 1778020438 | 25° C | 60% | 1017.3 hPa | 0 mm | 0.45 m/s, 272° | 68 W/m² | - |
| 1778020133 | 25° C | 60% | 1017.6 hPa | 0 mm | 0 m/s | 48 W/m² | - |
| 1778019830 | 25° C | 59% | 1017.4 hPa | 0 mm | 1.79 m/s, 313° | 65 W/m² | - |
| 1778019527 | 25° C | 60% | 1017.4 hPa | 0 mm | 0.45 m/s, 127° | 85 W/m² | - |
| 1778019224 | 25° C | 59% | 1017.3 hPa | 0 mm | 0.89 m/s, 315° | 97 W/m² | - |
| 1778018921 | 25° C | 58% | 1017.3 hPa | 0 mm | 0 m/s | 95 W/m² | - |
| 1778018617 | 25° C | 58% | 1017.3 hPa | 0 mm | 0.89 m/s, 28° | 100 W/m² | - |
| 1778018316 | 25° C | 58% | 1017.4 hPa | 0 mm | 0.89 m/s, 22° | 80 W/m² | - |
| 1778018013 | 25° C | 58% | 1017.6 hPa | 0 mm | 0.45 m/s, 264° | 62 W/m² | - |
| 1778017711 | 25° C | 58% | 1017.7 hPa | 0 mm | 0.45 m/s, 249° | 66 W/m² | - |
| 1778017408 | 25° C | 59% | 1017.5 hPa | 0 mm | 0.45 m/s, 157° | 92 W/m² | - |
| 1778017105 | 25° C | 58% | 1017.3 hPa | 0 mm | 2.24 m/s, 278° | 104 W/m² | - |
| 1778016803 | 25.56° C | 58% | 1017.5 hPa | 0 mm | 1.79 m/s, 296° | 129 W/m² | - |
| 1778016499 | 25.56° C | 58% | 1017.5 hPa | 0 mm | 0.45 m/s, 341° | 175 W/m² | - |
| 1778016196 | 25.56° C | 58% | 1017.3 hPa | 0 mm | 0.45 m/s, 315° | 174 W/m² | - |
* Rain latest hour (hover to see other rain measurements)
** Current wind speed in m/s (hover to see current wind gust speed)